Weather History for Smyrna, TN

Change the Weather History Date:

Saturday, August 10, 2013

  Actual Average Record
Temperature  
Mean Temperature 80 °F -  
Max Temperature 90 °F 84 °F 104 °F (2007)
Min Temperature 69 °F 67 °F 41 °F (2001)
Cooling Degree Days 14    
Growing Degree Days 30 (Base 50)    
Moisture  
Dew Point 73 °F    
Average Humidity 85    
Maximum Humidity 100    
Minimum Humidity 55    
Precipitation  
Precipitation 0.00 in - - ()
Sea Level Pressure  
Sea Level Pressure 30.10 in    
Wind  
Wind Speed 2 mph (West)    
Max Wind Speed 9 mph    
Max Gust Speed -    
Visibility 8 miles    
Events Fog    
Averages and records for this station are not official NWS values.
T = Trace of Precipitation, MM = Missing Value Source: NWS Daily Summary

Daily Weather History Graph

Daily Weather History Graph

Search for Another Location

Airport:

Trip Planner

Search our weather history database for the weather conditions in past years. The results will help you decide how hot, cold, wet, or windy it might be!

Date:

Astronomy

Aug. 10, 2013 Rise Set
Actual Time 6:00 AM CDT 7:41 PM CDT
Civil Twilight 5:33 AM CDT 8:08 PM CDT
Nautical Twilight 4:59 AM CDT 8:42 PM CDT
Astronomical Twilight 4:24 AM CDT 9:17 PM CDT
Moon 9:37 AM CDT (8/10) 9:32 PM CDT (8/10)
Length of Visible Light 14h 35m
Length of Day
13h 40m
Waxing Crescent, 14% of the Moon is Illuminated
Aug 10
Waxing Crescent
Aug 14
First Quarter
Aug 20
Full
Aug 28
Last Quarter
Sep 5
New

Hourly Weather History & Observations

Time (CDT) Temp. Heat Index Dew Point Humidity Pressure Visibility Wind Dir Wind Speed Gust Speed Precip Events Conditions
12:56 AM 75.9 °F - 72.9 °F 90% 30.07 in 10.0 mi South 4.6 mph - N/A   Clear
1:56 AM 73.9 °F - 72.0 °F 93% 30.08 in 10.0 mi Calm Calm - N/A   Clear
2:56 AM 72.9 °F - 72.9 °F 100% 30.08 in 9.0 mi Calm Calm - N/A   Clear
3:56 AM 72.0 °F - 72.0 °F 100% 30.09 in 7.0 mi Calm Calm - N/A   Clear
4:56 AM 72.0 °F - 72.0 °F 100% 30.09 in 6.0 mi Calm Calm - N/A   Clear
5:07 AM 71.6 °F - 71.6 °F 100% 30.07 in 1.8 mi Calm Calm - N/A   Clear
5:09 AM 71.6 °F - 71.6 °F 100% 30.07 in 1.0 mi Calm Calm - N/A   Clear
5:13 AM 71.6 °F - 71.6 °F 100% 30.07 in 0.5 mi Calm Calm - N/A Fog Fog
5:24 AM 71.6 °F - 71.6 °F 100% 30.07 in 0.2 mi Calm Calm - N/A Fog Fog
5:32 AM 69.8 °F - 69.8 °F 100% 30.08 in 0.8 mi Calm Calm - N/A   Clear
5:35 AM 69.8 °F - 69.8 °F 100% 30.08 in 1.2 mi South 3.5 mph - N/A   Clear
5:38 AM 71.6 °F - 71.6 °F 100% 30.08 in 2.0 mi Calm Calm - N/A   Clear
5:46 AM 71.6 °F - 71.6 °F 100% 30.08 in 6.0 mi Calm Calm - N/A   Clear
5:56 AM 70.9 °F - 70.9 °F 100% 30.10 in 5.0 mi Calm Calm - N/A   Clear
6:56 AM 72.9 °F - 72.9 °F 100% 30.12 in 7.0 mi Calm Calm - N/A   Scattered Clouds
7:56 AM 75.9 °F - 73.9 °F 94% 30.14 in 10.0 mi Calm Calm - N/A   Mostly Cloudy
8:27 AM 77.0 °F - 73.4 °F 89% 30.13 in 10.0 mi South 4.6 mph - N/A   Mostly Cloudy
8:56 AM 79.0 °F - 74.8 °F 87% 30.14 in 10.0 mi WSW 5.8 mph - N/A   Scattered Clouds
9:11 AM 80.6 °F 86.2 °F 75.2 °F 84% 30.13 in 10.0 mi West 5.8 mph - N/A   Mostly Cloudy
9:27 AM 80.6 °F 86.2 °F 75.2 °F 84% 30.13 in 10.0 mi West 5.8 mph - N/A   Mostly Cloudy
9:56 AM 81.0 °F 86.2 °F 73.9 °F 79% 30.16 in 10.0 mi West 8.1 mph - N/A   Overcast
10:36 AM 82.4 °F 88.2 °F 73.4 °F 74% 30.14 in 10.0 mi NNW 8.1 mph - N/A   Mostly Cloudy
10:56 AM 82.9 °F 88.5 °F 72.9 °F 71% 30.15 in 10.0 mi WNW 5.8 mph - N/A   Mostly Cloudy
11:56 AM 86.0 °F 93.0 °F 72.9 °F 65% 30.13 in 10.0 mi Variable 5.8 mph - N/A   Clear
12:56 PM 88.0 °F 95.6 °F 72.9 °F 61% 30.12 in 10.0 mi North 9.2 mph - N/A   Clear
1:56 PM 88.9 °F 97.6 °F 73.9 °F 61% 30.11 in 10.0 mi Variable 6.9 mph - N/A   Scattered Clouds
2:56 PM 90.0 °F 99.0 °F 73.9 °F 59% 30.09 in 10.0 mi North 8.1 mph - N/A   Mostly Cloudy
3:56 PM 88.0 °F 93.8 °F 70.9 °F 57% 30.07 in 10.0 mi North 6.9 mph - N/A   Scattered Clouds
4:56 PM 90.0 °F 96.9 °F 72.0 °F 55% 30.08 in 10.0 mi Calm Calm - N/A   Scattered Clouds
5:56 PM 88.0 °F 95.6 °F 72.9 °F 61% 30.08 in 10.0 mi North 5.8 mph - N/A   Partly Cloudy
6:56 PM 86.0 °F 93.0 °F 72.9 °F 65% 30.08 in 10.0 mi Calm Calm - N/A   Clear
7:56 PM 81.9 °F 87.0 °F 72.9 °F 74% 30.09 in 10.0 mi Calm Calm - N/A   Partly Cloudy
8:56 PM 79.9 °F - 73.9 °F 82% 30.11 in 10.0 mi SSW 5.8 mph - N/A   Mostly Cloudy
9:56 PM 79.0 °F - 72.9 °F 81% 30.12 in 10.0 mi Calm Calm - N/A   Partly Cloudy
10:56 PM 77.0 °F - 72.9 °F 87% 30.13 in 10.0 mi Calm Calm - N/A   Clear
11:56 PM 75.9 °F - 72.9 °F 90% 30.12 in 10.0 mi South 4.6 mph - N/A   Partly Cloudy